Stations météo

réclame
Mon MeteoGroup
Bierset/Liege, Belgique (6478): Température de l'air & dewpoint: 14.05.2019 19:00:00 - 20.05.2019 19:00:00 (CEST)Bierset/Liege, Belgique (6478): Vitesse du vent & gusts: 14.05.2019 19:00:00 - 20.05.2019 19:00:00 (CEST)Bierset/Liege, Belgique (6478): Direction du vent: 14.05.2019 19:00:00 - 20.05.2019 19:00:00 (CEST)Bierset/Liege, Belgique (6478): reduced air pressure: 14.05.2019 19:00:00 - 20.05.2019 19:00:00 (CEST)Bierset/Liege, Belgique (6478): visibility: 14.05.2019 19:00:00 - 20.05.2019 19:00:00 (CEST)
Date & Time tt [°C] td [°C] ff [km/h] ff [knt] fx [km/h] fx [knt] dd ppp [hPa] vv [km]
20.05.2019 19:00:00 12,1 10,5 13 7 25 14 WNW 1010,6 4,8
20.05.2019 18:00:00 12,4 11,0 13 7 25 14 WNW 1010,4 4,0
20.05.2019 17:00:00 12,1 11,1 15 8 - - WNW 1010,1 2,5
20.05.2019 16:00:00 12,5 10,9 16 9 29 16 WNW 1010,0 4,8
20.05.2019 15:00:00 12,8 11,1 13 7 22 12 WNW 1009,9 5
20.05.2019 14:00:00 12,8 11,4 11 6 - - WNW 1009,9 3,5
20.05.2019 13:00:00 12,2 11,0 13 7 18 10 W 1009,4 4,8
20.05.2019 12:00:00 12,1 10,7 13 7 22 12 W 1009,0 6
20.05.2019 11:00:00 12,4 10,7 11 6 - - WNW 1008,8 8
20.05.2019 10:00:00 11,5 10,8 11 6 18 10 WNW 1008,7 4,2
20.05.2019 09:00:00 11,2 10,7 11 6 18 10 NW 1008,4 1,5
20.05.2019 08:00:00 11,3 10,8 8 4 - - NW 1007,9 1,3
20.05.2019 07:00:00 11,2 10,7 5 3 11 6 NW 1007,6 1,4
20.05.2019 06:00:00 11,3 10,9 8 4 14 8 NW 1007,5 0,9
20.05.2019 05:00:00 11,3 10,9 8 4 - - NW 1007,3 0,4
20.05.2019 04:00:00 11,5 11,1 11 6 14 8 NW 1007,2 0,3
20.05.2019 03:00:00 11,6 11,3 9 5 11 6 WNW 1007,2 0,2
20.05.2019 02:00:00 11,8 11,6 8 4 - - NW 1007,4 0,1
20.05.2019 01:00:00 12,0 11,5 9 5 18 10 NNW 1007,4 1,1
20.05.2019 00:00:00 12,4 11,8 5 3 18 10 W 1007,2 1,4
19.05.2019 23:00:00 12,7 12,1 11 6 - - NW 1007,2 1,3
19.05.2019 22:00:00 12,5 11,8 5 3 14 8 WSW 1006,6 6
19.05.2019 21:00:00 13,0 11,9 8 4 25 14 NNW 1006,4 10
19.05.2019 20:00:00 13,2 12,3 13 7 - - WNW 1006,1 6
19.05.2019 19:00:00 13,3 11,9 9 5 29 16 SW 1006,1 4,5
19.05.2019 18:00:00 18,0 10,1 11 6 25 14 N 1005,0 10
19.05.2019 17:00:00 19,0 13,3 13 7 - - NNW 1004,8 7
19.05.2019 16:00:00 18,2 13,4 11 6 22 12 NW 1005,1 5
19.05.2019 15:00:00 17,8 14,3 13 7 22 12 NW 1005,3 4,4
19.05.2019 14:00:00 16,6 13,5 5 3 - - WNW 1005,7 4,1
19.05.2019 13:00:00 16,0 13,6 5 3 11 6 W 1005,9 3,8
19.05.2019 12:00:00 15,4 13,7 8 4 14 8 WNW 1006,0 2,8
19.05.2019 11:00:00 14,3 12,4 4 2 - - - 1006,3 2,7
19.05.2019 10:00:00 14,2 12,9 9 5 14 8 NNW 1006,1 2,6
19.05.2019 09:00:00 13,6 12,5 8 4 14 8 NW 1006,1 1,9
19.05.2019 08:00:00 12,5 11,8 8 4 - - NW 1006,1 1,3
19.05.2019 07:00:00 12,1 11,1 8 4 14 8 WNW 1006,2 3,8
19.05.2019 06:00:00 12,2 11,0 8 4 14 8 W 1006,0 6
19.05.2019 05:00:00 12,6 11,1 9 5 - - SSW 1006,1 6
19.05.2019 04:00:00 12,8 11,3 2 1 11 6 SW 1006,2 10
19.05.2019 03:00:00 13,2 12,1 8 4 22 12 SSE 1006,4 8
19.05.2019 02:00:00 12,8 10,8 0 0 - - N 1006,8 10
19.05.2019 01:00:00 12,9 11,8 4 2 4 2 - 1006,8 10
19.05.2019 00:00:00 13,7 11,6 4 2 14 8 - 1007,1 10
18.05.2019 23:00:00 14,1 11,8 4 2 - - - 1007,3 10
18.05.2019 22:00:00 14,2 12,5 9 5 11 6 WSW 1007,2 10
18.05.2019 21:00:00 14,8 11,7 4 2 11 6 WNW 1006,4 10
18.05.2019 20:00:00 15,2 12,6 5 3 - - ENE 1006,3 10
18.05.2019 19:00:00 15,0 12,8 11 6 22 12 NW 1006,0 10
18.05.2019 18:00:00 13,9 12,0 15 8 36 19 E 1005,9 10
18.05.2019 17:00:00 18,9 10,6 4 2 - - - 1005,4 10
18.05.2019 16:00:00 18,7 9,9 4 2 14 8 - 1005,3 10
18.05.2019 15:00:00 17,9 11,0 5 3 14 8 - 1005,6 10
18.05.2019 14:00:00 17,4 11,2 9 5 - - NNE 1005,7 10
18.05.2019 13:00:00 17,6 11,3 8 4 14 8 WNW 1005,9 10
18.05.2019 12:00:00 16,4 10,8 0 0 11 6 N 1006,2 10
18.05.2019 11:00:00 14,9 10,6 2 1 - - - 1006,2 10
18.05.2019 10:00:00 13,0 10,1 8 4 11 6 SE 1006,3 10
18.05.2019 09:00:00 12,2 10,4 2 1 11 6 - 1006,1 6
18.05.2019 08:00:00 10,8 10,0 2 1 - - - 1005,9 3,7
18.05.2019 07:00:00 10,1 10,1 2 1 11 6 - 1005,9 0,6
18.05.2019 06:00:00 10,1 10,0 2 1 32 18 - 1005,5 0,6
18.05.2019 05:00:00 10,3 10,0 4 2 - - - 1005,6 0,6
18.05.2019 04:00:00 10,6 10,1 2 1 18 10 - 1005,7 1,7
18.05.2019 03:00:00 10,9 10,5 4 2 7 4 NNW 1005,9 1,6
18.05.2019 02:00:00 10,9 10,4 4 2 - - - 1006,0 2,0
18.05.2019 01:00:00 10,9 10,3 5 3 11 6 ENE 1006,1 2,7
18.05.2019 00:00:00 10,7 10,3 8 4 11 6 NNE 1006,2 2,0
17.05.2019 23:00:00 10,8 10,2 8 4 - - NNW 1006,4 5
17.05.2019 22:00:00 10,9 10,2 4 2 7 4 - 1006,5 7
17.05.2019 21:00:00 11,1 10,1 8 4 11 6 NNE 1006,2 10
17.05.2019 20:00:00 11,4 10,0 8 4 - - N 1006,1 10
17.05.2019 19:00:00 11,5 9,7 8 4 11 6 NNE 1006,1 10
17.05.2019 18:00:00 11,6 9,5 9 5 14 8 NNE 1006,3 10
17.05.2019 17:00:00 12,0 9,2 8 4 - - NNE 1006,5 10
17.05.2019 16:00:00 11,6 8,9 8 4 14 8 N 1006,7 10
17.05.2019 15:00:00 11,3 9,2 9 5 14 8 NNE 1006,9 10
17.05.2019 14:00:00 10,6 8,5 11 6 - - NE 1006,9 15
17.05.2019 13:00:00 10,0 8,4 9 5 14 8 NNE 1007,0 10
17.05.2019 12:00:00 9,8 8,2 11 6 14 8 NE 1007,1 10
17.05.2019 11:00:00 9,3 7,8 11 6 - - NE 1007,5 9
17.05.2019 10:00:00 8,9 7,5 11 6 18 10 NE 1007,9 7
17.05.2019 09:00:00 8,7 7,4 11 6 29 16 ENE 1008,2 7
17.05.2019 08:00:00 8,4 7,6 9 5 - - NE 1008,4 3,5
17.05.2019 07:00:00 8,2 7,4 11 6 22 12 ENE 1008,7 3,5
17.05.2019 06:00:00 8,0 7,3 9 5 29 16 NE 1008,8 3,0
17.05.2019 05:00:00 8,0 7,3 11 6 - - NE 1009,0 3,5
17.05.2019 04:00:00 8,6 7,0 11 6 22 12 NE 1009,5 7
17.05.2019 03:00:00 9,8 5,9 13 7 22 12 ENE 1009,9 10
17.05.2019 02:00:00 10,5 5,7 11 6 - - ENE 1010,6 10
17.05.2019 01:00:00 11,2 5,1 9 5 14 8 E 1011,2 10
17.05.2019 00:00:00 11,5 5,7 8 4 14 8 E 1011,9 10
16.05.2019 23:00:00 11,7 4,9 9 5 - - E 1012,5 10
16.05.2019 22:00:00 11,8 5,4 15 8 29 16 ENE 1012,8 10
16.05.2019 21:00:00 12,7 6,1 18 10 32 18 ENE 1012,7 10
16.05.2019 20:00:00 13,8 6,2 21 11 - - NE 1013,0 10
16.05.2019 19:00:00 14,9 5,7 24 13 36 19 NE 1013,2 10
16.05.2019 18:00:00 14,8 5,1 21 11 36 19 ENE 1014,0 10
16.05.2019 17:00:00 14,5 3,6 18 10 - - NE 1014,9 10
16.05.2019 16:00:00 14,5 4,0 13 7 29 16 NE 1015,6 10
16.05.2019 15:00:00 14,4 3,6 18 10 32 18 NNE 1016,4 10
16.05.2019 14:00:00 12,8 2,0 18 10 - - NE 1017,2 10
16.05.2019 13:00:00 13,7 2,3 13 7 29 16 NNE 1017,6 10
16.05.2019 12:00:00 12,8 3,3 11 6 29 16 N 1018,3 10
16.05.2019 11:00:00 12,1 2,7 15 8 - - NE 1018,9 10
16.05.2019 10:00:00 11,5 2,4 15 8 29 16 ENE 1019,5 10
16.05.2019 09:00:00 10,5 2,8 13 7 18 10 NE 1019,8 10
16.05.2019 08:00:00 7,8 2,2 8 4 - - NE 1020,2 10
16.05.2019 07:00:00 5,0 1,6 5 3 7 4 NNE 1021,0 10
16.05.2019 06:00:00 5,8 -0,8 5 3 22 12 N 1021,0 10
16.05.2019 05:00:00 5,4 0,3 8 4 - - NE 1021,2 10
16.05.2019 04:00:00 7,7 -0,5 8 4 25 14 E 1021,2 10
16.05.2019 03:00:00 8,5 -0,4 5 3 25 14 E 1021,6 10
16.05.2019 02:00:00 8,9 0,0 9 5 - - ENE 1021,9 10
16.05.2019 01:00:00 9,2 -0,2 13 7 18 10 NE 1022,1 10
16.05.2019 00:00:00 9,5 -1,0 13 7 18 10 NE 1022,7 10
15.05.2019 23:00:00 9,7 -0,2 13 7 - - NE 1023,1 10
15.05.2019 22:00:00 10,6 -0,8 13 7 22 12 NE 1023,1 10
15.05.2019 21:00:00 11,7 -0,8 15 8 32 18 NE 1023,1 10
15.05.2019 20:00:00 13,8 -1,7 22 12 - - NE 1022,9 10
15.05.2019 19:00:00 14,7 -1,8 21 11 40 21 NE 1022,9 10
15.05.2019 18:00:00 18,4 8,5 24 13 14 8 NE 1024,7 10
15.05.2019 17:00:00 18,4 8,6 21 11 - - NE 1024,9 10
15.05.2019 16:00:00 18,0 8,8 21 11 22 12 NE 1025,0 10
15.05.2019 15:00:00 17,8 8,9 21 11 25 14 NE 1025,2 10
15.05.2019 14:00:00 13,9 -3,3 21 11 - - NE 1025,2 10
15.05.2019 13:00:00 13,3 -0,8 21 11 36 19 NE 1025,7 10
15.05.2019 12:00:00 13,2 -0,3 21 11 36 19 NE 1026,2 10
15.05.2019 11:00:00 12,4 -0,3 22 12 - - ENE 1027,0 10
15.05.2019 10:00:00 11,5 1,1 15 8 22 12 NNE 1027,2 10
15.05.2019 09:00:00 11,0 2,2 4 2 11 6 - 1027,4 10
15.05.2019 08:00:00 8,3 2,9 4 2 - - - 1027,7 10
15.05.2019 07:00:00 6,7 1,5 2 1 7 4 - 1028,0 10
15.05.2019 06:00:00 6,2 1,2 5 3 25 14 ESE 1028,0 10
15.05.2019 05:00:00 6,2 1,5 5 3 - - ESE 1028,0 10
15.05.2019 04:00:00 7,6 0,1 5 3 22 12 E 1027,9 10
15.05.2019 03:00:00 8,2 0,2 2 1 11 6 ENE 1028,2 10
15.05.2019 02:00:00 8,3 0,2 8 4 - - ENE 1028,6 10
15.05.2019 01:00:00 7,9 1,0 8 4 14 8 NE 1029,0 10
15.05.2019 00:00:00 8,6 0,9 9 5 14 8 NE 1029,1 10
14.05.2019 23:00:00 9,8 1,1 13 7 - - NE 1029,2 10
14.05.2019 22:00:00 10,9 0,9 13 7 29 16 NE 1029,2 10
14.05.2019 21:00:00 12,5 0,7 21 11 32 18 NE 1029,0 10
14.05.2019 20:00:00 13,4 0,9 22 12 - - NE 1029,2 10
14.05.2019 19:00:00 14,0 0,0 22 12 36 19 NE 1029,4 10

tt = Température de l'air
td = dewpoint
ff = Vitesse du vent
fx = gusts
dd = Direction du vent
ppp = reduced air pressure
vv = visibility

stations d'obs. à proximité